Weather History for KLLQ - May, 2013

Change the Weather History Date:

Monday, May 13, 2013

  Actual Average Record
Temperature  
Mean Temperature 64 °F -  
Max Temperature 80 °F 80 °F 91 °F (1962)
Min Temperature 48 °F 58 °F 44 °F (1960)
Degree Days  
Heating Degree Days 1    
Growing Degree Days 14 (Base 50)    
Moisture  
Dew Point 47 °F    
Average Humidity 56    
Maximum Humidity 89    
Minimum Humidity 34    
Precipitation  
Precipitation 0.00 in - - ()
Sea Level Pressure  
Sea Level Pressure 30.20 in    
Wind  
Wind Speed 3 mph (SSW)    
Max Wind Speed 10 mph    
Max Gust Speed 17 mph    
Visibility 10 miles    
Events      
Averages and records for this station are not official NWS values.
T = Trace of Precipitation, MM = Missing Value Source: NWS Daily Summary

Daily Weather History Graph

Daily Weather History Graph

Search for Another Location

Airport or City:

Trip Planner

Search our weather history database for the weather conditions in past years. The results will help you decide how hot, cold, wet, or windy it might be!

Date:

Astronomy

May. 13, 2013 Rise Set
Actual Time 6:07 AM CDT 7:59 PM CDT
Civil Twilight 5:40 AM CDT 8:26 PM CDT
Nautical Twilight 5:07 AM CDT 9:00 PM CDT
Astronomical Twilight 4:31 AM CDT 9:35 PM CDT
Moon 8:54 AM CDT (5/13) 11:08 PM CDT (5/13)
Length of Visible Light 14h 46m
Length of Day
13h 51m
Waxing Crescent, 12% of the Moon is Illuminated
May 13
Waxing Crescent
May 17
First Quarter
May 24
Full
May 31
Last Quarter
Jun 8
New

Hourly Weather History & Observations

Time (CDT) Temp. Dew Point Humidity Pressure Visibility Wind Dir Wind Speed Gust Speed Precip Events Conditions
12:53 AM 53.1 °F 46.9 °F 80% 30.20 in 10.0 mi Calm Calm - N/A   Clear
1:53 AM 55.9 °F 44.1 °F 64% 30.19 in 10.0 mi Calm Calm - N/A   Clear
2:53 AM 50.0 °F 46.0 °F 86% 30.19 in 10.0 mi Calm Calm - N/A   Clear
3:53 AM 50.0 °F 45.0 °F 83% 30.19 in 10.0 mi Calm Calm - N/A   Clear
4:53 AM 48.9 °F 44.1 °F 83% 30.19 in 10.0 mi Calm Calm - N/A   Clear
5:53 AM 48.0 °F 45.0 °F 89% 30.21 in 10.0 mi Calm Calm - N/A   Clear
6:53 AM 55.9 °F 42.1 °F 60% 30.23 in 10.0 mi Calm Calm - N/A   Clear
7:53 AM 60.1 °F 43.0 °F 53% 30.25 in 10.0 mi South 4.6 mph - N/A   Clear
8:53 AM 63.0 °F 44.1 °F 50% 30.28 in 10.0 mi South 5.8 mph - N/A   Partly Cloudy
9:53 AM 66.9 °F 45.0 °F 45% 30.27 in 10.0 mi SSW 6.9 mph - N/A   Partly Cloudy
10:53 AM 71.1 °F 46.9 °F 42% 30.28 in 10.0 mi South 5.8 mph - N/A   Partly Cloudy
11:53 AM 73.0 °F 46.9 °F 39% 30.27 in 10.0 mi SSE 5.8 mph - 0.00 in   Scattered Clouds
12:53 PM 75.9 °F 46.0 °F 35% 30.25 in 10.0 mi Variable 6.9 mph - N/A   Clear
1:53 PM 77.0 °F 46.9 °F 34% 30.22 in 10.0 mi SW 4.6 mph - N/A   Clear
3:53 PM 79.0 °F 48.0 °F 34% 30.18 in 10.0 mi Variable 6.9 mph 17.3 mph N/A   Clear
4:53 PM 80.1 °F 48.9 °F 34% 30.16 in 10.0 mi SW 9.2 mph - N/A   Clear
5:53 PM 79.0 °F 48.9 °F 35% 30.14 in 10.0 mi SSW 10.4 mph - N/A   Clear
7:53 PM 73.0 °F 51.1 °F 46% 30.14 in 10.0 mi SSW 3.5 mph - N/A   Clear
8:53 PM 68.0 °F 53.1 °F 59% 30.15 in 10.0 mi South 3.5 mph - 0.00 in   Clear
9:53 PM 66.0 °F 54.0 °F 65% 30.17 in 10.0 mi South 4.6 mph - N/A   Clear
10:53 PM 64.9 °F 53.1 °F 65% 30.16 in 10.0 mi SSW 4.6 mph - N/A   Clear
11:53 PM 69.1 °F 51.1 °F 53% 30.15 in 10.0 mi SSW 8.1 mph - N/A   Clear